Miscellaneous Local Product
Issued by NWS North Platte, NE

Home | Current Version | Previous Version | Graphics & Text | Print | Product List | Glossary On
Versions: 1 2 3 4 5 6 7 8 9 10 11 12 13 14 15 16 17 18 19 20 21 22 23 24 25 26 27 28 29 30 31 32 33 34 35 36 37 38 39 40 41 42 43 44 45 46 47 48 49 50
353
AXUS43 KLBF 281410
MISLBF


WESTERN AND NORTH CENTRAL NEBRASKA HOURLY WEATHER ROUNDUP
NATIONAL WEATHER SERVICE NORTH PLATTE NE
900 AM CDT WED JUN 28 2017

NOTE: "FAIR" INDICATES FEW OR NO CLOUDS BELOW 12,000 FEET WITH NO
SIGNIFICANT WEATHER AND/OR OBSTRUCTIONS TO VISIBILITY.

NOTE: STATIONS NOT REPORTING VARIABLES SUCH AS SKY/WEATHER OR
PRESSURE ARE PROVIDED BY RAWS AND APRS NETWORKS AND ARE NOT UNDER
NATIONAL WEATHER SERVICE QUALITY CONTROL.

...OBSERVATIONS IN AND NEAR THE EASTERN PANHANDLE OF NEBRASKA...

CITY           SKY/WX    TMP DP  RH WIND       PRES   REMARKS
PINE RIDGE     SUNNY     64  56  75 W7        29.83S
GORDON         FAIR      65  55  70 W8        29.83R
CHADRON        SUNNY     67  53  61 NW7       29.84R
ALLIANCE       SUNNY     63  53  70 NW9       29.87R
SIDNEY         SUNNY     66  50  56 NW10      29.90S
CRESCENT LAKE    N/A     64  54  69 NW7         N/A
$$

...OBSERVATIONS IN NORTHERN NEBRASKA AND FAR SOUTHERN SOUTH DAKOTA...

CITY           SKY/WX    TMP DP  RH WIND       PRES   REMARKS
WINNER         FAIR      73  57  57 NW14G23   29.70R
VALENTINE      SUNNY     72  52  49 NW13      29.75R
THEDFORD       SUNNY     70  57  63 NW13      29.80S
AINSWORTH      SUNNY     69  57  67 NW13      29.75S
O`NEILL        SUNNY     70  60  70 W10       29.70S
ORD            SUNNY     71  61  70 W5        29.71F
BROKEN BOW     SUNNY     71  57  61 W12       29.75S
VALENTINE NWR    N/A     66  55  69 NW12        N/A
HALSEY           N/A     69  55  62 W9          N/A
BUTTE            N/A     71  59  66 NW14        N/A
CHAMBERS         N/A     78  59  52 SW3         N/A
EWING            N/A     70  63  79 SW6         N/A
$$

...OBSERVATIONS IN SOUTHWEST NEBRASKA AND FAR NORTHEAST COLORADO...

CITY           SKY/WX    TMP DP  RH WIND       PRES   REMARKS
WRAY           FAIR      72  50  46 NW9       29.88R
IMPERIAL       SUNNY     71  51  49 NW13      29.84R
OGALLALA       SUNNY     69  53  56 NW15      29.84S
NORTH PLATTE   SUNNY     69  59  70 NW10      29.79R
MCCOOK         SUNNY     72  60  66 W9        29.78S
LEXINGTON      SUNNY     70  62  76 W7        29.77S
STAPLETON        N/A     68  58  69 CALM        N/A
GOTHENBURG       N/A     64  57  79 W3          N/A
CALLAWAY         N/A     65  62  91 W3          N/A
$$

...OBSERVATIONS IN CENTRAL LINCOLN COUNTY AREA...

CITY           SKY/WX    TMP DP  RH WIND       PRES   REMARKS
N.P. AIRPORT   SUNNY     69  59  70 NW10      29.79R
N.P. DOWNTOWN    N/A     68  58  70 NW3         N/A
N.P. SOUTHEAST   N/A     67  57  70 NW3         N/A
N.P. HILLCREST   N/A     68  57  68 NW12        N/A
$$

...SOME OBSERVATIONS FROM AROUND THE REGION...

CITY           SKY/WX    TMP DP  RH WIND       PRES   REMARKS
DENVER         PTSUNNY   70  40  33 S10       29.99S
LIMON          SUNNY     69  44  40 N9        29.99R
ASPEN          CLOUDY    58  33  39 N3        30.11R
LARAMIE        SUNNY     58  40  51 S9        30.05S
CASPER         SUNNY     63  41  44 VRB3      29.92F
CHEYENNE       SUNNY     61  39  44 S3        30.00S
SCOTTSBLUFF    SUNNY     62  48  60 W8        29.88F
GRAND ISLAND   CLOUDY    73  67  81 S8        29.75R
OMAHA          CLOUDY    72  64  76 S18       29.73R
SIOUX FALLS    PTSUNNY   69  65  86 SW12      29.62R
PIERRE         CLOUDY    68  60  75 NW12      29.65R
RAPID CITY     SUNNY     68  54  60 NW16G26   29.80R
BISMARCK       PTSUNNY   68  57  68 NW16G24   29.64R
KANSAS CITY    CLOUDY    74  67  78 S17G25    29.86F
HILL CITY      SUNNY     76  68  76 S20G32    29.76R
WICHITA        LGT RAIN  74  69  85 S10G23    29.86F
DODGE CITY     SUNNY     77  64  64 S24G33    29.79F
OKLAHOMA CITY  MOSUNNY   78  66  66 S17       29.92S
DALLAS         MOSUNNY   79  72  79 S7        29.95R
$$




USA.gov is the U.S. government's official web portal to all federal, state and local government web resources and services.